When you browse on this site, cookies collect data to enhance your experience and personalize the content and advertising you see.
Visit our Privacy Policy to learn more. By continuing to use the site, you agree to this use of cookies and data.
  • In Hungary
  • List of Countries
  • For 7 days
  • Water Temperature
  • Satellite Maps
  • Weather Map
  • News
  • Weather Widgets
  • user-avatar
    Login

    Hourly Weather Sfaks

    Today, 21 April, Sunday

    Time Temperature Precipitation Wind Pressure Humidity
    00:00 +17°C° 0 mm 9 mps 758 mmHg 73%
    01:00 +16°C° 0 mm 7 mps 758 mmHg 78%
    02:00 +16°C° 0 mm 9 mps 757 mmHg 78%
    03:00 +16°C° 0 mm 10 mps 757 mmHg 78%
    04:00 +16°C° 0 mm 11 mps 756 mmHg 78%
    05:00 +17°C° 0 mm 11 mps 756 mmHg 76%
    06:00 +17°C° 0 mm 12 mps 756 mmHg 74%
    07:00 +17°C° 0 mm 12 mps 755 mmHg 72%
    08:00 +18°C° 0 mm 12 mps 755 mmHg 67%
    09:00 +21°C° 0 mm 12 mps 755 mmHg 61%
    10:00 +22°C° 0 mm 12 mps 754 mmHg 55%
    11:00 +22°C° 0 mm 11 mps 754 mmHg 53%
    12:00 +23°C° 0 mm 11 mps 753 mmHg 50%
    13:00 +24°C° 0 mm 10 mps 753 mmHg 48%
    14:00 +24°C° 0 mm 10 mps 752 mmHg 48%
    15:00 +24°C° 0 mm 9 mps 751 mmHg 49%
    16:00 +24°C° 0 mm 8 mps 751 mmHg 49%
    17:00 +23°C° 0 mm 8 mps 751 mmHg 53%
    18:00 +22°C° 0 mm 8 mps 751 mmHg 57%
    19:00 +21°C° 0 mm 8 mps 750 mmHg 60%
    20:00 +21°C° 0 mm 7 mps 751 mmHg 63%
    21:00 +20°C° 0 mm 6 mps 751 mmHg 65%
    22:00 +20°C° 0 mm 5 mps 751 mmHg 68%
    23:00 +20°C° 0 mm 5 mps 751 mmHg 63%

    Tomorrow, 22 April, Monday

    Time Temperature Precipitation Wind Pressure Humidity
    00:00 +21°C° 0 mm 6 mps 750 mmHg 59%
    01:00 +22°C° 0 mm 6 mps 750 mmHg 55%
    02:00 +22°C° 0 mm 7 mps 750 mmHg 51%
    03:00 +23°C° 0 mm 8 mps 749 mmHg 46%
    04:00 +24°C° 0 mm 9 mps 749 mmHg 42%
    05:00 +24°C° 0 mm 8 mps 749 mmHg 43%
    06:00 +23°C° 0 mm 7 mps 749 mmHg 43%
    07:00 +23°C° 0 mm 6 mps 749 mmHg 44%
    08:00 +26°C° 0 mm 7 mps 749 mmHg 35%
    09:00 +29°C° 0 mm 8 mps 749 mmHg 26%
    10:00 +32°C° 0 mm 9 mps 749 mmHg 17%
    11:00 +33°C° 0 mm 11 mps 749 mmHg 17%
    12:00 +33°C° 0 mm 12 mps 749 mmHg 17%
    13:00 +33°C° 0 mm 14 mps 749 mmHg 17%
    14:00 +33°C° 0 mm 13 mps 749 mmHg 18%
    15:00 +32°C° 0 mm 12 mps 749 mmHg 18%
    16:00 +32°C° 0 mm 12 mps 750 mmHg 19%
    17:00 +31°C° 0 mm 11 mps 750 mmHg 21%
    18:00 +29°C° 0 mm 9 mps 750 mmHg 23%
    19:00 +29°C° 0 mm 8 mps 751 mmHg 26%
    20:00 +28°C° 0 mm 7 mps 752 mmHg 27%
    21:00 +27°C° 0 mm 6 mps 752 mmHg 28%
    22:00 +26°C° 0 mm 5 mps 753 mmHg 30%
    23:00 +26°C° 0 mm 5 mps 753 mmHg 30%

    Day after tomorrow, 23 April, Tuesday

    Time Temperature Precipitation Wind Pressure Humidity
    00:00 +25°C° 0 mm 5 mps 753 mmHg 30%
    01:00 +25°C° 0 mm 4 mps 753 mmHg 31%
    02:00 +23°C° 0 mm 4 mps 753 mmHg 31%
    03:00 +23°C° 0 mm 4 mps 753 mmHg 31%
    04:00 +22°C° 0 mm 3 mps 753 mmHg 32%
    05:00 +22°C° 0 mm 4 mps 753 mmHg 34%
    06:00 +22°C° 0 mm 5 mps 753 mmHg 37%
    07:00 +22°C° 0 mm 5 mps 754 mmHg 40%
    08:00 +25°C° 0 mm 5 mps 754 mmHg 34%
    09:00 +27°C° 0 mm 5 mps 754 mmHg 27%
    10:00 +30°C° 0 mm 5 mps 755 mmHg 21%
    11:00 +30°C° 0 mm 5 mps 755 mmHg 20%
    12:00 +32°C° 0 mm 5 mps 755 mmHg 19%
    13:00 +32°C° 0 mm 5 mps 754 mmHg 18%
    14:00 +32°C° 0 mm 5 mps 754 mmHg 19%
    15:00 +32°C° 0 mm 5 mps 754 mmHg 19%
    16:00 +32°C° 0 mm 5 mps 754 mmHg 20%
    17:00 +30°C° 0 mm 5 mps 754 mmHg 23%
    18:00 +28°C° 0 mm 6 mps 754 mmHg 26%
    19:00 +27°C° 0 mm 6 mps 754 mmHg 29%
    20:00 +26°C° 0 mm 6 mps 755 mmHg 33%
    21:00 +24°C° 0 mm 6 mps 756 mmHg 37%
    22:00 +23°C° 0 mm 5 mps 756 mmHg 41%
    23:00 +22°C° 0 mm 4 mps 757 mmHg 45%

    24 April, Wednesday

    Time Temperature Precipitation Wind Pressure Humidity
    00:00 +22°C° 0 mm 3 mps 757 mmHg 49%
    01:00 +22°C° 0 mm 1 mps 757 mmHg 52%
    02:00 +21°C° 0 mm 2 mps 757 mmHg 51%
    03:00 +21°C° 0 mm 3 mps 757 mmHg 50%
    04:00 +21°C° 0 mm 4 mps 757 mmHg 48%
    05:00 +21°C° 0 mm 4 mps 757 mmHg 50%
    06:00 +21°C° 0 mm 5 mps 757 mmHg 51%
    07:00 +21°C° 0 mm 6 mps 757 mmHg 52%
    08:00 +22°C° 0 mm 6 mps 757 mmHg 50%
    09:00 +23°C° 0 mm 5 mps 758 mmHg 48%
    10:00 +25°C° 0 mm 5 mps 758 mmHg 46%
    11:00 +25°C° 0.2 mm 5 mps 757 mmHg 45%
    12:00 +26°C° 0.2 mm 5 mps 757 mmHg 45%
    13:00 +26°C° 0.2 mm 5 mps 757 mmHg 45%
    14:00 +26°C° 0.1 mm 5 mps 756 mmHg 45%
    15:00 +27°C° 0.1 mm 5 mps 756 mmHg 45%
    16:00 +27°C° 0.1 mm 5 mps 755 mmHg 45%
    17:00 +26°C° 0 mm 5 mps 756 mmHg 49%
    18:00 +25°C° 0 mm 5 mps 756 mmHg 53%
    19:00 +23°C° 0 mm 5 mps 757 mmHg 57%
    20:00 +22°C° 0 mm 6 mps 758 mmHg 61%
    21:00 +21°C° 0 mm 8 mps 758 mmHg 66%
    22:00 +19°C° 0 mm 9 mps 759 mmHg 70%
    23:00 +19°C° 0 mm 10 mps 759 mmHg 72%

    25 April, Thursday

    Time Temperature Precipitation Wind Pressure Humidity
    00:00 +19°C° 0 mm 10 mps 759 mmHg 73%
    01:00 +18°C° 0 mm 10 mps 759 mmHg 75%
    02:00 +18°C° 0 mm 10 mps 759 mmHg 77%
    03:00 +17°C° 0 mm 10 mps 759 mmHg 80%
    04:00 +17°C° 0 mm 9 mps 759 mmHg 82%
    05:00 +17°C° 0 mm 9 mps 759 mmHg 81%
    06:00 +17°C° 0 mm 9 mps 759 mmHg 80%
    07:00 +17°C° 0 mm 9 mps 760 mmHg 79%
    08:00 +19°C° 0 mm 9 mps 760 mmHg 73%
    09:00 +21°C° 0 mm 9 mps 760 mmHg 66%
    10:00 +23°C° 0 mm 9 mps 760 mmHg 60%
    11:00 +24°C° 0 mm 9 mps 760 mmHg 55%
    12:00 +26°C° 0 mm 9 mps 760 mmHg 50%
    13:00 +27°C° 0 mm 8 mps 761 mmHg 45%
    14:00 +27°C° 0 mm 8 mps 761 mmHg 46%
    15:00 +26°C° 0 mm 8 mps 761 mmHg 47%
    16:00 +26°C° 0 mm 9 mps 761 mmHg 48%
    17:00 +24°C° 0 mm 8 mps 761 mmHg 51%
    18:00 +23°C° 0 mm 7 mps 761 mmHg 53%
    19:00 +22°C° 0 mm 7 mps 761 mmHg 55%
    20:00 +22°C° 0 mm 7 mps 762 mmHg 58%
    21:00 +21°C° 0 mm 6 mps 763 mmHg 61%
    22:00 +21°C° 0 mm 6 mps 763 mmHg 64%
    23:00 +20°C° 0 mm 6 mps 763 mmHg 67%

    26 April, Friday

    Time Temperature Precipitation Wind Pressure Humidity
    00:00 +20°C° 0 mm 5 mps 763 mmHg 70%
    01:00 +19°C° 0 mm 5 mps 763 mmHg 74%
    02:00 +19°C° 0 mm 5 mps 763 mmHg 75%
    03:00 +17°C° 0 mm 6 mps 763 mmHg 76%
    04:00 +17°C° 0 mm 6 mps 763 mmHg 77%
    05:00 +17°C° 0 mm 6 mps 763 mmHg 75%
    06:00 +17°C° 0 mm 7 mps 764 mmHg 73%
    07:00 +18°C° 0 mm 7 mps 764 mmHg 71%
    08:00 +21°C° 0 mm 7 mps 764 mmHg 61%
    09:00 +23°C° 0 mm 7 mps 765 mmHg 51%
    10:00 +26°C° 0 mm 6 mps 765 mmHg 41%
    11:00 +27°C° 0 mm 7 mps 765 mmHg 38%
    12:00 +28°C° 0 mm 7 mps 765 mmHg 35%
    13:00 +29°C° 0 mm 7 mps 764 mmHg 32%
    14:00 +28°C° 0 mm 7 mps 764 mmHg 32%
    15:00 +28°C° 0 mm 8 mps 764 mmHg 32%
    16:00 +28°C° 0 mm 8 mps 764 mmHg 33%
    17:00 +27°C° 0 mm 8 mps 764 mmHg 35%
    18:00 +26°C° 0 mm 9 mps 764 mmHg 37%
    19:00 +23°C° 0 mm 9 mps 764 mmHg 40%
    20:00 +23°C° 0 mm 8 mps 765 mmHg 42%
    21:00 +22°C° 0 mm 8 mps 765 mmHg 44%
    22:00 +22°C° 0 mm 8 mps 766 mmHg 46%
    23:00 +22°C° 0 mm 8 mps 766 mmHg 45%
    Show more